Regional Weather Roundup
Issued by NWS

Home | Current Version | Previous Version | Text Only | Print | Product List | Glossary On
Versions: 1 2 3 4 5 6 7 8 9 10 11 12 13 14 15 16 17 18 19 20 21 22 23 24 25 26 27 28 29 30 31 32 33 34 35 36 37 38 39 40 41 42 43 44 45 46 47 48 49 50
000
ASUS44 KOUN 191300
RWROK

WEATHER ROUNDUP FOR OKLAHOMA
NATIONAL WEATHER SERVICE NORMAN OK
800 AM CDT SUN APR 19 2015

NOTE: "FAIR" INDICATES FEW OR NO CLOUDS BELOW 12,000 FEET WITH NO
      SIGNIFICANT WEATHER AND/OR OBSTRUCTIONS TO VISIBILITY.

OKZ001>007-009>012-014-015-017-191400-
NORTHWEST OKLAHOMA AND THE PANHANDLE

CITY           SKY/WX    TMP DP  RH WIND       PRES   REMARKS
GAGE           SUNNY     49  41  74 W8        29.81R
GUYMON         MOCLDY    47  38  71 NW15G22   29.84R
ENID/WOODRING  LGT RAIN  54  52  94 E6        29.77F
$$

OKZ016-021>023-033>039-044-045-191400-
SOUTHWEST OKLAHOMA

CITY           SKY/WX    TMP DP  RH WIND       PRES   REMARKS
LAWTON/REGL    PTSUNNY   54  50  86 N8        29.74R
LAWTON/FT SILL PTSUNNY   54  52  94 N10       29.72R
FREDERICK      CLOUDY    54  52  93 N7        29.72R
CLINTON        CLOUDY    54  48  80 NW8       29.81R
HOBART         CLOUDY    55  51  86 NE7       29.77R
ALTUS AFB      CLOUDY    55  55  97 N7        29.76R FOG
$$

OKZ018>020-024>031-191400-
CENTRAL OKLAHOMA

CITY           SKY/WX    TMP DP  RH WIND       PRES   REMARKS
OKLAHOMA CITY  PTSUNNY   56  50  80 NW8       29.77R
OKC/WILEY POST SUNNY     56  50  80 N9        29.78R
OKC/TINKER AFB MOSUNNY   54  51  90 NW8       29.76R
STILLWATER     LGT RAIN  54  51  90 NW10      29.79R
GUTHRIE        PTSUNNY   55  51  86 N5        29.79R
$$

OKZ008-013-054>072-191400-
NORTHEAST OKLAHOMA

CITY           SKY/WX    TMP DP  RH WIND       PRES   REMARKS
TULSA          CLOUDY    56  54  93 SW5       29.72R
TULSA/JONES    PTSUNNY   53  53 100 CALM      29.73R
PONCA CITY     LGT RAIN  55  51  86 SW9G21    29.78R
BARTLESVILLE   CLOUDY    54  54 100 SW3       29.75R
MUSKOGEE       CLOUDY    56  55  97 CALM      29.74R
$$

OKZ032-040>043-046>053-073>077-191400-
SOUTH CENTRAL/SOUTHEAST OKLAHOMA

CITY           SKY/WX    TMP DP  RH WIND       PRES   REMARKS
MCALESTER      PTSUNNY   57  55  93 CALM      29.74S
$$



USA.gov is the U.S. government's official web portal to all federal, state and local government web resources and services.